[[{"header":{"parameterUnit":"m.s-1","parameterCategory":1,"la1":30.2991,"la2":30.254,"lo1":-89.0895,"lo2":-89.0444,"dx":0.0017,"dy":0.0017,"nx":28,"ny":28,"refTime":"2022-11-18T15:00:00:Z","depth":0,"parameterNumber":2,"parameterNumberName":"U-component_of_WINDS"},"data":[0,0,0,0,0,0,0,0,0,0,0,0,0,0,0,0,0,0,0,0,0,0,0,0,0,0,0,0,0,0,0,0,0,0,0,0,0,0,0,0,0,0,0,0,0,0,0,0,0,0,0,0,0,0,0,0,0,0,-4.733,-4.7332,0,-4.7569,-4.7572,-4.7574,-4.7478,-4.7473,-4.7467,-4.7462,-4.7707,-4.7719,-4.773,0,0,0,0,0,0,0,0,0,0,0,0,0,-4.6788,-4.6798,-4.7329,-4.7332,-4.7335,-4.7568,-4.7572,-4.7575,-4.7479,-4.7472,-4.7466,-4.7459,-4.7703,-4.7717,-4.7731,0,0,0,0,0,0,0,0,0,0,0,0,0,-4.7025,-4.6802,-4.7329,-4.7316,-4.7317,-4.7568,-4.7572,-4.7576,-4.7481,-4.7472,-4.7464,-4.7456,-4.7699,-4.7716,-4.7733,-4.8011,0,0,-4.7787,-4.7795,0,0,0,0,0,0,0,0,-4.7011,-4.7045,-4.7315,-4.7317,-4.7319,-4.7485,-4.7471,-4.7722,-4.7483,-4.7419,-4.7462,-4.7452,-4.764,-4.7662,-4.7726,-4.8023,-4.8033,-4.7789,-4.78,-4.7807,-4.7812,0,0,0,0,0,0,0,-4.6995,-4.7034,-4.7424,-4.7319,-4.7321,-4.7297,-4.7322,-4.7518,-4.7574,-4.7424,-4.7417,-4.7447,-4.764,-4.7709,-4.7731,-4.8037,-4.7789,-4.7804,-4.7815,-4.7822,-4.8573,-4.8582,0,0,0,0,0,0,-4.6978,-4.7021,-4.7416,-4.7431,-4.7141,-4.7314,-4.7341,-4.744,-4.7571,-4.7583,-4.7454,-4.7441,-4.7683,-4.771,-4.7739,-4.8072,-4.7807,-4.7824,-4.7834,-4.8563,-4.8575,-4.8585,0,0,0,0,0,0,-4.6967,-4.7015,-4.7407,-4.7224,-4.7273,-4.7332,-4.7444,-4.7449,-4.7518,-4.7594,-4.7604,-4.7514,-4.7677,-4.7714,-4.7944,-4.8079,-4.7832,-4.7848,-4.8552,-4.8567,-4.858,-4.8741,0,0,0,0,0,0,-4.6952,-4.7011,-4.7118,-4.7228,-4.7283,-4.7609,-4.7453,-4.746,-4.7549,-4.7535,-4.7653,-4.7665,-4.7673,-4.7918,-4.7962,-4.8099,-4.7862,-4.8541,-4.8559,-4.8575,-4.8724,-4.8759,-4.8789,0,0,0,0,0,-4.6933,-4.7154,-4.7124,-4.7172,-4.7417,-4.7617,-4.7648,-4.7653,-4.756,-4.7668,-4.7716,-4.7661,-4.8057,-4.7943,-4.7991,-4.8136,-4.8532,-4.8554,-4.8574,-4.871,-4.8752,-4.8788,0,0,0,0,0,0,-4.7059,-4.7168,-4.7136,-4.7399,-4.7499,-4.76,-4.7736,-4.7699,-4.7827,-4.7809,-4.781,-4.7837,-4.8074,-4.8128,-4.7998,-4.841,-4.8281,-4.8312,-4.8367,-4.8408,-4.844,-4.8422,-4.7876,0,0,0,0,0,-4.7117,-4.7271,-4.7358,-4.7581,-4.7633,-4.7676,-4.7763,-4.7759,-4.7862,-4.7904,-4.7969,-4.8072,-4.8219,-4.8317,-4.8457,-4.8731,-4.8755,-4.8854,-4.8887,-4.8913,-4.894,-4.9088,-4.9133,-4.8654,-4.8654,-4.8653,0,0,-4.724,-4.7318,-4.7415,-4.7609,-4.7686,-4.7844,-4.7713,-4.7886,-4.8003,-4.7931,-4.8151,-4.8203,-4.8317,-4.8571,-4.8685,-4.8622,-4.9078,-4.894,-4.896,-4.8973,-4.9114,-4.9159,-4.92,-4.8668,-4.8665,-4.8663,0,0,-4.7543,-4.7619,-4.7813,-4.7893,-4.8011,-4.8037,-4.8084,-4.8191,-4.8222,-4.8444,-4.8392,-4.8531,-4.8786,-4.8869,-4.8945,-4.9278,-4.9232,-4.9324,-4.9493,-4.9637,-4.9675,-4.9708,-4.9826,-4.9869,-4.9351,-4.9351,-4.9351,0,-4.768,-4.7917,-4.7917,-4.8095,-4.8181,-4.8122,-4.8318,-4.8395,-4.8554,-4.8614,-4.8541,-4.8858,-4.8931,-4.9202,-4.9283,-4.9347,-4.94,-4.931,-4.9669,-4.9703,-4.9734,-4.9847,-4.9891,-4.9361,-4.936,-4.9359,-4.9358,0,-4.8079,-4.8244,-4.8386,-4.854,-4.8642,-4.8828,-4.8856,-4.8959,-4.8945,-4.8979,-4.9205,-4.929,-4.9446,-4.951,-4.9498,-4.978,-4.9737,-4.9667,-4.9536,-4.979,-4.9896,-4.9939,-4.9376,-4.9372,-4.9369,-4.9367,0,0,-4.8469,-4.862,-4.8672,-4.8741,-4.8866,-4.8993,-4.9176,-4.9327,-4.9415,-4.9526,-4.9679,-4.9894,-4.983,-4.9916,-4.9913,-5.004,-5.0297,-4.9954,-4.9957,-5.0014,-5.0611,-5.0662,-5.0712,-5.0267,-5.0275,-5.0282,-5.0601,0,-4.8782,-4.9102,-4.9107,-4.9401,-4.9553,-4.9499,-4.9657,-4.9751,-4.9788,-4.9921,-4.9961,-5.0114,-5.0018,-5.007,-5.0192,-5.024,-5.0417,-5.0217,-5.0409,-5.0415,-5.0381,-5.0768,-5.0823,-5.112,-5.0642,-5.065,-5.0655,0,-4.9189,-4.9312,-4.9622,-4.9724,-4.9787,-4.993,-5.0069,-5.0197,-5.0302,-5.032,-5.0415,-5.0393,-5.0578,-5.0442,-5.0697,-5.0561,-5.0639,-5.0674,-5.0686,-5.0704,-5.055,-5.0795,-5.1215,-5.1259,-5.072,-5.0715,-5.071,0,-4.9442,-4.9685,-4.9901,-4.9961,-5.0086,-5.0188,-5.0244,-5.0341,-5.0431,-5.0553,-5.0611,-5.0753,-5.083,-5.094,-5.0956,-5.0855,-5.1212,-5.1077,-5.1231,-5.1231,-5.1308,-5.1303,-5.1746,-5.136,-5.136,-5.1359,-5.1358,0,-4.979,-4.9981,-5.0016,-5.0149,-5.0361,-5.0364,-5.0574,-5.0622,-5.0709,-5.0849,-5.0811,-5.0944,-5.0957,-5.1094,-5.1108,-5.1316,-5.1352,-5.1371,-5.1372,-5.1374,-5.1372,-5.1425,-5.1405,-5.1371,-5.1368,-5.1366,-5.1364,0,-5.0108,-5.0139,-5.037,-5.047,-5.0499,-5.0651,-5.0735,-5.0862,-5.0894,-5.1072,-5.1114,-5.1165,-5.1324,-5.1351,-5.1539,-5.1547,-5.1796,-5.1777,-5.1761,-5.1758,-5.1911,-5.1896,-5.2403,-5.2469,-5.2041,-5.2045,-5.2049,0,-5.0327,-5.0473,-5.0587,-5.0679,-5.0741,-5.0889,-5.098,-5.099,-5.1087,-5.1216,-5.1327,-5.1482,-5.1606,-5.1863,-5.1916,-5.2059,-5.2042,-5.221,-5.2063,-5.206,-5.2043,-5.2034,-5.2048,-5.2238,-5.2243,-5.2246,-5.2249,0,-5.0713,-5.0721,-5.0855,-5.0996,-5.1106,-5.1217,-5.1321,-5.1398,-5.1421,-5.1532,-5.1693,-5.179,-5.198,-5.2134,-5.2276,-5.2333,-5.2296,-5.2295,-5.2338,-5.2341,-5.2326,-5.2335,-5.1837,-5.2283,-5.228,-5.2277,-5.2276,-5.2274,-5.0988,-5.1114,-5.1214,-5.1365,-5.1444,-5.1542,-5.1666,-5.1713,-5.1848,-5.2004,-5.2001,-5.2179,-5.2278,-5.2464,-5.2532,-5.267,-5.2616,-5.2678,-5.2694,-5.2709,-5.2723,-5.2304,-5.2696,-5.2695,-5.2694,-5.2693,-5.2693,0,-5.1371,-5.1433,-5.1571,-5.1718,-5.1836,-5.179,-5.1903,-5.2004,-5.2161,-5.2257,-5.238,-5.2566,-5.2714,-5.2779,-5.2926,-5.3024,-5.301,-5.3062,-5.3054,-5.3068,-5.2764,-5.2712,-5.307,-5.307,-5.307,-5.307,-5.307,-5.307,-5.1584,-5.1795,-5.1815,-5.2064,-5.2124,-5.2298,-5.2366,-5.2456,-5.2533,-5.2741,-5.2865,-5.2906,-5.299,-5.3141,-5.3276,-5.3291,-5.3346,-5.3406,-5.3413,-5.3128,-5.3089,-5.3053,-5.3004,-5.3418,-5.3418,-5.3705,-5.3708,-5.371]},{"header":{"parameterUnit":"m.s-1","parameterCategory":1,"la1":30.2991,"la2":30.254,"lo1":-89.0895,"lo2":-89.0444,"dx":0.0017,"dy":0.0017,"nx":28,"ny":28,"refTime":"2022-11-18T15:00:00:Z","depth":0,"parameterNumber":3,"parameterNumberName":"V-component_of_WINDS"},"data":[0,0,0,0,0,0,0,0,0,0,0,0,0,0,0,0,0,0,0,0,0,0,0,0,0,0,0,0,0,0,0,0,0,0,0,0,0,0,0,0,0,0,0,0,0,0,0,0,0,0,0,0,0,0,0,0,0,0,-2.9853,-2.9854,0,-2.9904,-2.9904,-2.9905,-2.9878,-2.9876,-2.9875,-2.9874,-2.9922,-2.9925,-2.9927,0,0,0,0,0,0,0,0,0,0,0,0,0,-2.9728,-2.9731,-2.9853,-2.9854,-2.9854,-2.9904,-2.9904,-2.9905,-2.9878,-2.9876,-2.9875,-2.9873,-2.9921,-2.9924,-2.9927,0,0,0,0,0,0,0,0,0,0,0,0,0,-2.9781,-2.9731,-2.9853,-2.9847,-2.9847,-2.9903,-2.9904,-2.9905,-2.9878,-2.9876,-2.9874,-2.9872,-2.992,-2.9924,-2.9928,-2.9992,0,0,-2.994,-2.9941,0,0,0,0,0,0,0,0,-2.9778,-2.9785,-2.9847,-2.9847,-2.9848,-2.9882,-2.9878,-2.9934,-2.9879,-2.9866,-2.9874,-2.9871,-2.991,-2.9915,-2.9929,-2.9995,-2.9997,-2.994,-2.9942,-2.9944,-2.9945,0,0,0,0,0,0,0,-2.9774,-2.9783,-2.9873,-2.9848,-2.9848,-2.984,-2.9845,-2.9888,-2.9899,-2.9867,-2.9865,-2.9872,-2.991,-2.9925,-2.993,-2.9997,-2.994,-2.9943,-2.9946,-2.9947,-3.0115,-3.0117,0,0,0,0,0,0,-2.9772,-2.978,-2.9871,-2.9875,-2.9807,-2.9844,-2.985,-2.9873,-2.9899,-2.99,-2.9874,-2.987,-2.992,-2.9925,-2.9931,-3.0006,-2.9944,-2.9947,-2.995,-3.0113,-3.0115,-3.0118,0,0,0,0,0,0,-2.9769,-2.978,-2.9869,-2.9827,-2.9838,-2.9848,-2.9875,-2.9875,-2.989,-2.9903,-2.9905,-2.9887,-2.9918,-2.9926,-2.9977,-3.0007,-2.9949,-2.9953,-3.011,-3.0113,-3.0116,-3.0158,0,0,0,0,0,0,-2.9766,-2.9779,-2.9805,-2.9828,-2.984,-2.9916,-2.9877,-2.9878,-2.9897,-2.9894,-2.9917,-2.9918,-2.9917,-2.9971,-2.9981,-3.0012,-2.9956,-3.0107,-3.0112,-3.0115,-3.0154,-3.0162,-3.0169,0,0,0,0,0,-2.9761,-2.9815,-2.9807,-2.9818,-2.9873,-2.9918,-2.9925,-2.9923,-2.99,-2.9925,-2.9933,-2.9918,-3.0003,-2.9977,-2.9987,-3.002,-3.0105,-3.011,-3.0115,-3.015,-3.016,-3.0169,0,0,0,0,0,0,-2.9796,-2.9818,-2.9809,-2.9872,-2.9893,-2.9913,-2.9945,-2.9934,-2.9962,-2.9957,-2.9953,-2.9958,-3.001,-3.002,-2.9991,-3.0082,-3.005,-3.0057,-3.0073,-3.0083,-3.0091,-3.0087,-2.9959,0,0,0,0,0,-2.9811,-2.9847,-2.9864,-2.9917,-2.9928,-2.9935,-2.9954,-2.9951,-2.9972,-2.9981,-2.9992,-3.0013,-3.0043,-3.0064,-3.0093,-3.0155,-3.0158,-3.0182,-3.019,-3.0196,-3.0202,-3.0232,-3.0243,-3.0133,-3.0133,-3.0133,0,0,-2.9842,-2.9859,-2.9882,-2.9925,-2.9941,-2.9976,-2.9943,-2.9982,-3.0007,-2.9986,-3.0035,-3.0044,-3.0066,-3.0121,-3.0147,-3.0131,-3.0233,-3.0202,-3.0207,-3.021,-3.0238,-3.0249,-3.0258,-3.0137,-3.0136,-3.0136,0,0,-2.9917,-2.9934,-2.998,-2.9996,-3.002,-3.0024,-3.0034,-3.0055,-3.0061,-3.0109,-3.0093,-3.0122,-3.0177,-3.0192,-3.0207,-3.0284,-3.027,-3.0294,-3.0334,-3.0363,-3.0372,-3.038,-3.0405,-3.0414,-3.03,-3.03,-3.03,0,-2.9953,-3.0007,-3.0004,-3.0044,-3.0062,-3.0045,-3.0089,-3.0105,-3.0137,-3.0149,-3.0131,-3.0197,-3.0211,-3.0268,-3.0287,-3.0301,-3.0311,-3.0291,-3.0371,-3.0379,-3.0386,-3.041,-3.042,-3.0302,-3.0302,-3.0302,-3.0302,0,-3.0048,-3.0085,-3.0118,-3.015,-3.0172,-3.0214,-3.0215,-3.0238,-3.0231,-3.0236,-3.0284,-3.03,-3.033,-3.0344,-3.0339,-3.04,-3.0389,-3.0372,-3.034,-3.0399,-3.0421,-3.0431,-3.0306,-3.0305,-3.0304,-3.0304,0,0,-3.0147,-3.0175,-3.0187,-3.02,-3.0224,-3.0252,-3.0292,-3.0322,-3.034,-3.0362,-3.0394,-3.0439,-3.0422,-3.0438,-3.0434,-3.0461,-3.0518,-3.0439,-3.044,-3.0452,-3.0583,-3.0595,-3.0606,-3.0509,-3.051,-3.0512,-3.0581,0,-3.0222,-3.0293,-3.029,-3.0355,-3.0387,-3.037,-3.0404,-3.0421,-3.0426,-3.0453,-3.0458,-3.0489,-3.0465,-3.0475,-3.05,-3.0505,-3.0544,-3.0501,-3.0536,-3.0537,-3.053,-3.0619,-3.0632,-3.0697,-3.059,-3.0591,-3.0592,0,-3.032,-3.0344,-3.0413,-3.0429,-3.0442,-3.0474,-3.0499,-3.0526,-3.0544,-3.0545,-3.0563,-3.0554,-3.0592,-3.0559,-3.061,-3.0581,-3.0595,-3.0599,-3.0602,-3.0604,-3.0568,-3.0622,-3.0717,-3.0726,-3.0607,-3.0605,-3.0604,0,-3.0383,-3.0433,-3.048,-3.0491,-3.0512,-3.0534,-3.0543,-3.056,-3.0577,-3.0599,-3.061,-3.0637,-3.0651,-3.0671,-3.0668,-3.0645,-3.0718,-3.0687,-3.0719,-3.0719,-3.0735,-3.0733,-3.0832,-3.0746,-3.0746,-3.0746,-3.0746,0,-3.0466,-3.0508,-3.0508,-3.0536,-3.0582,-3.0577,-3.0622,-3.0629,-3.0643,-3.067,-3.0657,-3.0683,-3.0679,-3.0705,-3.0703,-3.0743,-3.075,-3.0751,-3.075,-3.0752,-3.0751,-3.076,-3.0755,-3.0748,-3.0748,-3.0747,-3.0747,0,-3.0544,-3.0546,-3.0595,-3.061,-3.0615,-3.0648,-3.066,-3.0685,-3.0688,-3.0723,-3.0731,-3.0735,-3.0764,-3.0764,-3.0798,-3.0796,-3.0845,-3.084,-3.0839,-3.0838,-3.0869,-3.0866,-3.0976,-3.0989,-3.0896,-3.0897,-3.0898,0,-3.0597,-3.0628,-3.0646,-3.0664,-3.0675,-3.0704,-3.0721,-3.0717,-3.0735,-3.0757,-3.0779,-3.0807,-3.0829,-3.0876,-3.0881,-3.0906,-3.09,-3.0937,-3.0904,-3.0903,-3.0898,-3.0896,-3.0898,-3.0943,-3.0944,-3.0945,-3.0946,0,-3.0689,-3.0687,-3.0713,-3.0739,-3.076,-3.078,-3.0798,-3.0813,-3.081,-3.0831,-3.0861,-3.0878,-3.0911,-3.0938,-3.0962,-3.097,-3.0957,-3.0956,-3.0965,-3.0966,-3.0964,-3.0963,-3.0855,-3.0954,-3.0953,-3.0952,-3.0952,-3.0951,-3.0754,-3.078,-3.0796,-3.0825,-3.0838,-3.0854,-3.0878,-3.0883,-3.0908,-3.0935,-3.0931,-3.0963,-3.0978,-3.1008,-3.1018,-3.1042,-3.1028,-3.1041,-3.1044,-3.1047,-3.105,-3.0961,-3.1046,-3.1046,-3.1046,-3.1046,-3.1045,0,-3.0844,-3.0853,-3.0879,-3.0904,-3.0926,-3.0912,-3.093,-3.0949,-3.0978,-3.0993,-3.1014,-3.1047,-3.1072,-3.1079,-3.1103,-3.1121,-3.1115,-3.1127,-3.1125,-3.1126,-3.1061,-3.1051,-3.1131,-3.1131,-3.1131,-3.1131,-3.1131,-3.1131,-3.0893,-3.0935,-3.0935,-3.0983,-3.0991,-3.1023,-3.1034,-3.1049,-3.106,-3.1097,-3.1118,-3.1122,-3.1133,-3.1157,-3.1179,-3.118,-3.1189,-3.1203,-3.1201,-3.114,-3.1131,-3.1123,-3.1113,-3.1205,-3.1205,-3.1264,-3.1264,-3.1265]}]]